星链-34052 (STARLINK-34052)

导读

STARLINK-34052是美国于2025年5月10日发射的星链卫星,隶属于SpaceX公司打造的星链星座网络。星链项目旨在通过大规模低轨卫星群,为全球范围提供高速低延迟的宽带互联网服务,尤其覆盖偏远地区等地面网络难以通达区域。该卫星加入后,进一步扩充了星链星座的在轨规模,助力实现全球无缝覆盖的卫星互联网目标。

基本信息
目录编号:
63874
目录名称:
STARLINK-34052
国际标识:
2025-094L
轨道中心:
EARTH
卫星名称:
星链-34052
卫星全名:
星链-34052 (STARLINK-34052)
卫星状态:
在轨 (已飞行482 天)
发射日期:
2025-05-10 UTC
国别 :
美国 (US)
星等 :
--
轨道信息
数据来源 国际轨道数据
星历时间: 2026-09-04T04:00:02+0800
10小时前
查看轨道信息
半长轴: 6855.192km
偏心率: 0.0003142
轨道倾角: 70.001°
近地点辐角 262.748°
升交点赤经 144.860°
平近点角 269.794°
近地点: 474.901km
远地点: 479.209km
周期: 94.143分钟
每日圈数: 15.295843
详细信息
固有亮度:
5
最大亮度:
2.5
卫星平台:
Starlink V1.0
覆盖范围:
全球
运营商:
太空探索技术公司
运营商所在国:
美国
制造商(研发单位):
太空探索技术公司
制造商所在国:
美国
使用方式:
暂无
卫星简介
Starlink 计划是 SpaceX 推出的全球卫星互联网项目,通过发射低轨道卫星,为全球尤其是偏远地区提供高速、低延迟的互联网服务。自 2019 年起,Starlink 已部署数千颗卫星,旨在缩小全球数字鸿沟,推动互联网普及。该项目还为军事、航空等行业提供通信支持,带来广泛经济效益。
2D轨道图
3D轨道图
轨道高度分析图
轨道倾角分析图
轨道综合分析图
查看轨道综合分析图
交会数据列表
事件ID 空间交会对象 最接近时刻(TCA) 交会距离 交会风险概率(CRP) 交会风险指数(CRI) 操作
CDM_260904-012705-020306-387421
2026-09-04T
01:27:30+0000
1.141 km
极远距离
4.886269E-6 低风险 0.49
CDM_260905-055305-339706-387421
2026-09-05T
05:53:50+0000
1.726 km
极远距离
3.532277E-6 低风险 0.46
CDM_260904-115706-387406-472521
2026-09-04T
11:57:03+0000
1.878 km
极远距离
2.31515E-6 低风险 0.42
CDM_260904-184905-825006-387421
2026-09-04T
18:49:43+0000
2.108 km
极远距离
2.245848E-6 低风险 0.42
CDM_260903-150806-387406-680021
2026-09-03T
15:08:23+0000
2.721 km
极远距离
8.927861E-7 极低风险 0.34
CDM_260901-203906-387406-840821
2026-09-01T
20:39:29+0000
2.715 km
极远距离
8.209049E-7 极低风险 0.33